HORYU-4

Last updated on Wed Oct 29 2025 00:03:53 GMT+0000 (Coordinated Universal Time)

1 41340U 16012D 25300.96794565 .00046340 00000+0 92827-3 0 9990 2 41340 30.9952 263.0017 0003425 120.4806 239.6180 15.45469097534456
UTC large
Height (km)
Speed (km/s)
/
Latitude / Longitude
Inclination (degrees)
Orbital Period (minutes)
Azimuth
Elevation
Range (km)
Doppler Factor

Next 0 passes for location: London (51.5072 / 0.1276)

Sorry there are no passes over London.